Voltar ao catálogo

FFLY-2

AtivoCiênciaSSO
NORAD 65322·PAYLOAD·🇺🇸 United States

Lançado Aug 26, 2025 de Vandenberg Space Force Base

Loading…

Próximas Passagens (próximas 24 horas)

TLE

AtualizadoSource: Space-Track

Época: Sep 14, 2026, 12:06 UTC

1 65322U 25188H   26257.50445902  .00000895  00000-0  91829-4 0  9998
2 65322  97.7298 331.1940 0012503 181.3428 178.7760 14.92841723 57235

Acompanhe FFLY-2 em tempo real com AllMySat

Download on the App Store